Location: Limerick
(52.6650°N, 8.6230°W)
Time: 21:04:20
(UTC+01:00)

ISS - Pass Details

Date: 26 July 2017
Orbit: 403 x 406 km, 51.6° (Epoch: 26 April)

Event Time Altitude Azimuth Distance (km) Brightness Sun altitude
Rises 02:47:01 0° 281° (W) 2,322 0.0 -16.5°
Reaches altitude 10° 02:49:13 10° 271° (W) 1,461 -1.2 -16.4°
Enters shadow 02:49:27 12° 269° (W) 1,372 -1.3 -16.4°
